Regional Weather Roundup
Issued by NWS Bismarck, ND

Current Version | Previous Version | Text Only | Print | Product List | Glossary On
Versions: 1 2 3 4 5 6 7 8 9 10 11 12 13 14 15 16 17 18 19 20 21 22 23 24 25 26 27 28 29 30 31 32 33 34 35 36 37 38 39 40 41 42 43 44 45 46 47 48 49 50
000
ASUS43 KBIS 181510
RWRBIS

NWR BROADCAST TEXT
NATIONAL WEATHER SERVICE BISMARCK ND
1000 AM CDT MON JUN 18 2018

NOTE: "FAIR" INDICATES FEW OR NO CLOUDS BELOW 12,000 FEET WITH NO
SIGNIFICANT WEATHER AND/OR OBSTRUCTIONS TO VISIBILITY.


CITY           SKY/WX    TMP DP  RH WIND       PRES   REMARKS
WILLISTON      SUNNY     69  54  58 NE3       30.17S
MINOT          SUNNY     68  56  65 N6        30.15F
MINOT AFB      NOT AVBL
BISMARCK       MOSUNNY   69  54  58 E9        30.14S
DICKINSON      MOSUNNY   67  52  58 NE10      30.14S
GARRISON         N/A     68  55  63 E5        30.15R
HETTINGER ARPT PTSUNNY   62  50  64 NE14      30.15S
JAMESTOWN      MOSUNNY   67  49  52 NE12      30.12S
CARRINGTON     FAIR      68  50  52 E12       30.17S
HAZEN          FAIR      68  59  73 NE5       30.17S
LINTON           N/A     68  55  64 E12       30.15R
MANDAN         FAIR      66  55  68 E7        30.15S
OAKES          FAIR      66  52  59 NE18      30.10S
RUGBY          FAIR      70  46  43 NE13      30.15F
STANLEY          N/A     70  52  52 NE6G13    30.19S
TIOGA          FAIR      68  50  52 E8        30.19S
WATFORD CITY   FAIR      66  55  68 CALM      30.16S
$$

CITY           SKY/WX    TMP DP  RH WIND       PRES   REMARKS
GRAND FORKS    FAIR      68  51  54 N16       30.10F
GRAND FORKS AF NOT AVBL
DEVILS LAKE    FAIR      68  50  52 NE10      30.16F
FARGO          FAIR      70  54  56 N13       30.08S
CANDO          FAIR      70  52  52 NE8       30.18F
CAVALIER       FAIR      70  52  52 N9        30.15R
GRAFTON        FAIR      70  52  52 N13       30.15S
GWINNER          N/A     66  52  59 NE13      30.09S
LANGDON        FAIR      70  54  56 VRB5      30.18S
ROLLA          FAIR      68  45  42 NE9       30.19S
WALHALLA       FAIR      72  50  46 N8        30.15S
$$

CITY           SKY/WX    TMP DP  RH WIND       PRES   REMARKS
ABERDEEN       PTSUNNY   70  51  51 NE20      30.06S
MOBRIDGE       PTSUNNY   68  55  63 E15       30.08R
BUFFALO          N/A     61  49  64 E16       30.08R
RAPID CITY     RAIN      54  53  97 N7        30.13R FOG
GLASGOW        MOSUNNY   69  52  54 E12       30.13F
SIDNEY         SUNNY     64  55  72 NE3       30.16S
WOLF POINT     SUNNY     66  53  63 E7        30.16S
GLENDIVE       MOSUNNY   63  54  72 NE12      30.15F
MILES CITY     CLOUDY    64  53  67 E16       30.10S
BAKER          PTSUNNY   61  51  70 E14       30.15R
$$

CITY           SKY/WX    TMP DP  RH WIND       PRES   REMARKS
BILLINGS       CLOUDY    54  54 100 E10       30.02R
GREAT FALLS    LGT RAIN  56  54  93 NE15G24   30.06S
REGINA         MOSUNNY   70  46  43 VRB2      30.19F
ESTEVAN        MOSUNNY   70  52  52 E5        30.19R
$$





USA.gov is the U.S. government's official web portal to all federal, state and local government web resources and services.